Location: Arena
(42.5007°N, 9.4650°E)
Time: 02:21:59
(UTC+00:00)

STARLINK-1244 - Pass Details

Date: 09 April 2020
Orbit: 549 x 550 km, 53.0° (Epoch: 05 June)

Event Time Altitude Azimuth Distance (km) Brightness Sun altitude
Rises 19:48:27 0° 308° (NW) 2,729 8.8 -19.7°
Reaches altitude 10° 19:50:47 10° 315° (NW) 1,832 7.4 -20.1°
Maximum altitude 19:54:45 43° 28° (NNE) 788 4.4 -20.7°
Enters shadow 19:55:27 39° 56° (NE) 840 4.3 -20.8°
